| time (UTC) | temp C | wind direction | speed KPH | gust KPH | rain 1hr cm | rain 24hr cm | rain mn cm | humidity % | barometer mb |
| 20260506091031 | 28 | 90 | 1.6 | 3.2 | 0.00 | 0.10 | 0.00 | 39 | 1011.1 |
| 20260506085531 | 28 | 180 | 0.0 | 1.6 | 0.00 | 0.10 | 0.00 | 38 | 1011.4 |
| 20260506084031 | 28 | 90 | 0.0 | 1.6 | 0.00 | 0.10 | 0.00 | 36 | 1011.6 |
| 20260506082531 | 31 | 157 | 6.4 | 6.4 | 0.00 | 0.10 | 0.00 | 35 | 1011.6 |
| 20260506081031 | 31 | 157 | 6.4 | 6.4 | 0.00 | 0.10 | 0.00 | 34 | 1011.5 |
| 20260506072531 | 22 | 135 | 0.0 | 3.2 | 0.00 | 0.10 | 0.00 | 54 | 1011.9 |
| 20260506071031 | 21 | 112 | 0.0 | 3.2 | 0.00 | 0.10 | 0.00 | 57 | 1011.8 |
| 20260506061031 | 25 | 315 | 0.0 | 0.0 | 0.00 | 0.10 | 0.00 | 56 | 1012.5 |
| 20260506051031 | 14 | 292 | 0.0 | 0.0 | 0.00 | 0.10 | 0.00 | 85 | 1012.2 |
| 20260506044031 | 11 | 315 | 0.0 | 0.0 | 0.00 | 0.10 | 0.00 | 85 | 1012.4 |
| 20260506042531 | 10 | 315 | 0.0 | 0.0 | 0.00 | 0.10 | 0.00 | 85 | 1012.6 |
| 20260506041031 | 10 | 292 | 0.0 | 0.0 | 0.00 | 0.10 | 0.00 | 85 | 1012.7 |
| 20260506035531 | 9 | 315 | 0.0 | 0.0 | 0.00 | 0.10 | 0.00 | 85 | 1012.7 |
| 20260506034031 | 9 | 315 | 0.0 | 0.0 | 0.00 | 0.10 | 0.00 | 85 | 1012.8 |
| 20260506032531 | 9 | 292 | 0.0 | 3.2 | 0.00 | 0.10 | 0.00 | 85 | 1012.7 |
| 20260506031031 | 10 | 292 | 1.6 | 3.2 | 0.00 | 0.10 | 0.00 | 85 | 1012.5 |
| 20260506025531 | 10 | 315 | 3.2 | 3.2 | 0.00 | 0.10 | 0.00 | 85 | 1012.6 |
| 20260506024031 | 10 | 315 | 0.0 | 0.0 | 0.00 | 0.10 | 0.00 | 85 | 1012.4 |
| 20260506022531 | 10 | 315 | 3.2 | 3.2 | 0.00 | 0.10 | 0.00 | 85 | 1012.6 |
| 20260506021031 | 10 | 315 | 0.0 | 0.0 | 0.00 | 0.10 | 0.00 | 85 | 1012.5 |
| 20260506015531 | 10 | 292 | 1.6 | 1.6 | 0.00 | 0.10 | 0.00 | 85 | 1012.5 |
| 20260506014031 | 11 | 225 | 0.0 | 0.0 | 0.00 | 0.10 | 0.00 | 85 | 1012.4 |
| 20260506012531 | 11 | 225 | 0.0 | 0.0 | 0.00 | 0.10 | 0.00 | 85 | 1012.5 |
| 20260506011031 | 12 | 225 | 0.0 | 0.0 | 0.00 | 0.10 | 0.00 | 84 | 1012.8 |
| 20260506005531 | 12 | 225 | 0.0 | 3.2 | 0.00 | 0.10 | 0.00 | 84 | 1013.0 |
| 20260506004031 | 12 | 202 | 0.0 | 1.6 | 0.00 | 0.10 | 0.00 | 85 | 1012.7 |
| 20260506002531 | 12 | 180 | 1.6 | 1.6 | 0.00 | 0.10 | 0.00 | 84 | 1012.4 |
| 20260506001031 | 12 | 180 | 4.8 | 4.8 | 0.00 | 0.10 | 0.00 | 84 | 1012.4 |
| 20260505235531 | 12 | 180 | 6.4 | 6.4 | 0.00 | 0.10 | 0.00 | 84 | 1012.3 |
| 20260505234031 | 12 | 247 | 0.0 | 0.0 | 0.00 | 0.10 | 0.00 | 84 | 1012.2 |
| 20260505232531 | 12 | 270 | 1.6 | 1.6 | 0.00 | 0.10 | 0.00 | 84 | 1012.1 |
| 20260505231031 | 12 | 337 | 0.0 | 0.0 | 0.00 | 0.10 | 0.00 | 84 | 1012.0 |
| 20260505225531 | 12 | 315 | 0.0 | 4.8 | 0.00 | 0.10 | 0.00 | 84 | 1012.0 |
| 20260505224031 | 12 | 270 | 0.0 | 0.0 | 0.00 | 0.10 | 0.00 | 84 | 1011.9 |
| 20260505222531 | 12 | 270 | 0.0 | 0.0 | 0.00 | 0.10 | 0.00 | 83 | 1011.5 |
| 20260505221031 | 12 | 292 | 0.0 | 0.0 | 0.00 | 0.10 | 0.00 | 82 | 1011.5 |
| 20260505215531 | 12 | 292 | 1.6 | 3.2 | 0.00 | 0.10 | 0.00 | 81 | 1011.2 |
| 20260505214031 | 12 | 292 | 0.0 | 1.6 | 0.00 | 0.10 | 0.00 | 81 | 1010.9 |
| 20260505212531 | 13 | 270 | 0.0 | 0.0 | 0.00 | 0.10 | 0.00 | 80 | 1010.7 |
| 20260505211031 | 13 | 292 | 0.0 | 0.0 | 0.00 | 0.10 | 0.00 | 79 | 1010.5 |
| 20260505205532 | 14 | 315 | 0.0 | 0.0 | 0.00 | 0.10 | 0.00 | 80 | 1010.3 |
| 20260505204032 | 13 | 112 | 4.8 | 4.8 | 0.05 | 0.10 | 0.00 | 82 | 1010.4 |
| 20260505202532 | 13 | 180 | 0.0 | 0.0 | 0.05 | 0.10 | 0.00 | 82 | 1010.2 |
| 20260505201032 | 13 | 180 | 4.8 | 4.8 | 0.10 | 0.10 | 0.00 | 82 | 1010.0 |
| 20260505195532 | 13 | 45 | 0.0 | 22.5 | 0.10 | 0.10 | 0.00 | 82 | 1009.2 |
| 20260505194032 | 13 | 315 | 6.4 | 11.3 | 0.05 | 0.05 | 0.00 | 80 | 1009.4 |
| 20260505192532 | 14 | 292 | 8.0 | 19.3 | 0.05 | 0.05 | 0.00 | 77 | 1009.7 |
| 20260505191032 | 14 | 292 | 32.2 | 32.2 | 0.00 | 0.00 | 0.00 | 75 | 1009.8 |
| 20260505185532 | 15 | 270 | 12.9 | 12.9 | 0.00 | 0.00 | 0.00 | 69 | 1009.4 |
| 20260505184032 | 16 | 292 | 30.6 | 30.6 | 0.00 | 0.00 | 0.00 | 64 | 1009.1 |
| 20260505182533 | 19 | 270 | 30.6 | 30.6 | 0.00 | 0.00 | 0.00 | 53 | 1008.7 |
| 20260505181032 | 21 | 270 | 25.7 | 25.7 | 0.00 | 0.00 | 0.00 | 47 | 1008.3 |
| 20260505175532 | 21 | 270 | 0.0 | 6.4 | 0.00 | 0.00 | 0.00 | 44 | 1007.9 |
| 20260505174032 | 22 | 315 | 4.8 | 6.4 | 0.00 | 0.00 | 0.00 | 42 | 1006.9 |
| 20260505172532 | 23 | 292 | 1.6 | 3.2 | 0.00 | 0.00 | 0.00 | 39 | 1006.7 |
| 20260505171032 | 25 | 292 | 3.2 | 3.2 | 0.00 | 0.00 | 0.00 | 35 | 1007.0 |
| 20260505165532 | 26 | 315 | 1.6 | 1.6 | 0.00 | 0.00 | 0.00 | 34 | 1006.8 |
| 20260505164032 | 26 | 112 | 0.0 | 0.0 | 0.00 | 0.00 | 0.00 | 31 | 1006.8 |
| 20260505162532 | 27 | 157 | 0.0 | 4.8 | 0.00 | 0.00 | 0.00 | 30 | 1006.9 |
| 20260505161032 | 27 | 112 | 0.0 | 0.0 | 0.00 | 0.00 | 0.00 | 29 | 1007.1 |
| 20260505152532 | 29 | 112 | 0.0 | 3.2 | 0.00 | 0.00 | 0.00 | 26 | 1007.3 |
| 20260505151032 | 28 | 45 | 0.0 | 3.2 | 0.00 | 0.00 | 0.00 | 25 | 1007.4 |
| 20260505124032 | 31 | 292 | 0.0 | 4.8 | 0.00 | 0.00 | 0.00 | 26 | 1009.0 |
| 20260505122532 | 32 | 90 | 1.6 | 1.6 | 0.00 | 0.00 | 0.00 | 26 | 1009.1 |
| 20260505121032 | 33 | 270 | 0.0 | 0.0 | 0.00 | 0.00 | 0.00 | 25 | 1009.4 |
| 20260505115532 | 32 | 270 | 1.6 | 1.6 | 0.00 | 0.00 | 0.00 | 27 | 1009.6 |
| 20260505114032 | 32 | 247 | 3.2 | 3.2 | 0.00 | 0.00 | 0.00 | 25 | 1009.7 |
| 20260505112532 | 31 | 292 | 3.2 | 3.2 | 0.00 | 0.00 | 0.00 | 28 | 1009.9 |
| 20260505111032 | 31 | 225 | 4.8 | 6.4 | 0.00 | 0.00 | 0.00 | 29 | 1010.1 |
| 20260505101032 | 34 | 270 | 3.2 | 4.8 | 0.00 | 0.00 | 0.00 | 25 | 1010.8 |
| 20260505095532 | 36 | 270 | 1.6 | 1.6 | 0.00 | 0.00 | 0.00 | 23 | 1010.9 |
| 20260505094032 | 38 | 225 | 0.0 | 6.4 | 0.00 | 0.00 | 0.00 | 22 | 1011.2 |
| 20260505092532 | 41 | 225 | 0.0 | 0.0 | 0.00 | 0.00 | 0.00 | 21 | 1011.3 |